Content
SEND FEEDBACK

Daily
Averages
Monthly
Summary
Turkmenistan

ASHGABAT, TURKMENISTAN


Home > Asia > Turkmenistan
Elevation: 775 feet     Latitude: 37 58N     Longitude: 058 20E

WEATHER
 
SELECT A DAY
Number of Records: 181,250;   Date Range: 3/15/97 - 10/23/14
 
SHARE

PRINT THIS DATA

[ ← Previous Day ]
WEATHER ALMANAC - NOVEMBER 12, 2013
[ Next Day → ]
[ °C ]   °F
Weather ElementAverageHighLow
Temperature53.8 °F64.4 °F (4:00 pm)44 °F (8:00 am)
Dewpoint27.4 °F34 °F (2:00 pm)15.8 °F (8:00 pm)
Humidity34.8 %57 % (4:00 am)17 % (5:00 pm)
Barometer30.21 in30.27 in (11:00 am)30.18 in (4:00 am)
Wind Speed7.4 mph13.4 mph (10:00 am)
Weather ElementAverage
Visibility6.1 mi
Wind DirectionESE (106.1 °)

Weather ElementTotal
Precipitation---
Heating Degree Days10.8 (Base 65)
Growing Degree Days4.2 (Base 50)
Averaged from 31 records on November 12, 2013
WEATHER CONDITIONS BREAKOUT
WIND DIRECTION BREAKOUT
WEATHER BY HOUR - NOVEMBER 12, 2013
[ °C ]   °F
Local TimeTemperatureDewpointHumidityBarometerVisibilityWind DirectionWind SpeedGust SpeedPrecipitationEventsConditions
1:00 AM57.2 °F26.6 °F31 %30.21 in6.2 miSE (130°)11.2 mphClear
2:00 AM55.0 °F27.0 °F22 %30.23 in6.0 miESE (120°)11.2 mph
2:00 AM55.4 °F26.6 °F33 %30.21 in6.2 miSE (130°)11.2 mphClear
3:00 AM51.8 °F32.0 °F47 %30.21 in4.3 miSSW (210°)2.2 mphClear
4:00 AM46.4 °F32.0 °F57 %30.18 in6.2 miVariable2.2 mphClear
5:00 AM45.0 °F30.0 °F44 %30.25 in6.0 miESE (110°)11.2 mph
5:00 AM46.4 °F30.2 °F53 %30.21 in6.2 miESE (110°)6.7 mphClear
6:00 AM48.2 °F28.4 °F46 %30.21 in6.2 miSE (130°)8.9 mphClear
7:00 AM46.4 °F28.4 °F50 %30.21 in6.2 miEast (100°)11.2 mphScattered Clouds
8:00 AM44.0 °F30.0 °F46 %30.26 in6.0 miEast (100°)8.9 mphPartly Cloudy
8:00 AM44.6 °F30.2 °F57 %30.21 in6.2 miEast (100°)6.7 mphMostly Cloudy
9:00 AM48.2 °F30.2 °F50 %30.24 in6.2 miEast (100°)8.9 mphMostly Cloudy
10:00 AM50.0 °F30.2 °F47 %30.24 in6.2 miESE (110°)13.4 mphMostly Cloudy
11:00 AM52.0 °F30.0 °F31 %30.27 in6.0 miEast (100°)6.7 mphPartly Cloudy
11:00 AM53.6 °F32.0 °F44 %30.24 in6.2 miEast (100°)6.7 mphMostly Cloudy
12:00 PM59.0 °F30.2 °F34 %30.24 in6.2 miSE (130°)6.7 mphMostly Cloudy
1:00 PM59.0 °F32.0 °F36 %30.21 in6.2 miESE (120°)6.7 mphOvercast
2:00 PM60.0 °F34.0 °F26 %30.22 in6.0 miEast (90°)8.9 mphOvercast
2:00 PM60.8 °F30.2 °F31 %30.18 in6.2 miEast (90°)8.9 mphOvercast
3:00 PM62.6 °F30.2 °F30 %30.18 in6.2 miEast (90°)6.7 mphOvercast
4:00 PM64.4 °F30.2 °F28 %30.18 in6.2 miEast (100°)6.7 mphOvercast
5:00 PM63.0 °F29.0 °F17 %30.19 in6.0 miENE (70°)4.5 mphOvercast
5:00 PM62.6 °F26.6 °F26 %30.18 in6.2 miEast (80°)4.5 mphOvercast
6:00 PM60.8 °F24.8 °F25 %30.18 in6.2 miEast (90°)6.7 mphOvercast
7:00 PM59.0 °F17.6 °F20 %30.18 in6.2 miENE (70°)4.5 mphOvercast
8:00 PM56.0 °F31.0 °F26 %30.21 in6.0 miSE (140°)4.5 mphPartly Cloudy
8:00 PM55.4 °F15.8 °F21 %30.18 in6.2 miSE (140°)4.5 mphMostly Cloudy
9:00 PM51.8 °F17.6 °F26 %30.18 in6.2 miESE (120°)4.5 mphMostly Cloudy
10:00 PM51.8 °F17.6 °F26 %30.18 in6.2 miEast (90°)6.7 mphMostly Cloudy
11:00 PM47.0 °F20.0 °F21 %30.22 in6.0 miESE (110°)8.9 mphClear
11:00 PM50.0 °F17.6 °F28 %30.18 in6.2 miESE (110°)8.9 mphScattered Clouds
Hourly data recorded from UTAA, located miles away from Ashgabat, Turkmenistan







STORIES FROM OUR PARTNERS